Wind_Speed
39 39 39 40 42 41 41 41 41 41 41 42 42 42 42 43 43 42 42 42 42 42 42 42 42 42 43 44 45 45 46 47 48 49 49 50 51 51
40 40 40 41 42 43 43 42 43 44 44 43 42 42 42 42 42 42 42 42 43 42 43 43 43 43 44 44 46 47 47 48 48 49 50 51 51 50
40 40 41 41 42 43 44 43 43 44 44 43 43 43 44 44 44 43 43 44 44 43 43 43 44 45 46 46 47 47 47 48 49 50 50 50 51 51
42 41 41 42 43 43 43 43 43 43 43 43 43 43 44 44 44 44 44 43 44 43 43 44 45 46 47 46 47 47 48 49 49 49 51 51 51 52
42 42 42 42 42 43 44 44 43 43 44 44 44 43 44 43 43 43 43 43 44 44 44 45 46 47 47 47 48 48 49 49 50 51 52 52 53 53
43 42 43 43 43 44 43 43 43 44 44 44 44 44 44 43 43 43 43 44 45 45 45 46 47 48 48 49 49 49 50 50 51 52 52 53 53 53
44 45 44 44 44 44 44 44 44 44 45 45 44 44 44 44 44 44 45 46 46 46 46 47 47 48 48 49 50 50 50 50 51 51 51 51 52 52
44 45 45 45 45 44 44 44 44 43 44 44 44 44 44 44 44 44 45 46 47 47 47 47 48 48 48 49 50 51 51 50 50 50 50 50 51 51
46 46 45 45 45 44 44 44 44 44 44 45 45 45 44 44 45 45 46 47 47 47 47 47 48 48 48 49 50 50 51 50 50 50 50 50 51 52
46 46 46 45 45 44 44 45 45 45 46 46 46 45 45 45 45 45 46 47 47 47 48 47 47 47 48 49 50 51 51 51 51 51 51 51 51 52
43 44 44 45 45 45 45 45 45 45 45 46 46 46 46 46 46 47 48 48 48 48 48 48 48 48 49 50 51 51 51 52 52 51 52 53 53 53
42 42 43 43 44 45 45 45 45 45 46 46 47 47 48 48 48 48 48 48 48 48 49 49 49 50 49 50 51 51 52 52 52 52 53 54 54 54
42 43 43 43 43 44 44 44 44 44 45 46 46 47 48 49 48 48 49 49 49 49 49 50 50 50 51 51 50 51 51 51 52 52 53 53 53 53
43 43 42 42 42 43 43 44 44 44 45 45 46 47 47 47 47 48 48 49 49 50 50 51 51 51 52 51 50 50 51 52 52 52 52 53 53 53
42 42 41 41 42 42 43 44 45 45 45 45 46 46 47 47 48 48 49 49 50 51 51 51 51 51 52 51 50 50 50 51 52 52 52 52 52 52
42 42 42 41 41 41 42 43 44 45 45 45 46 46 47 47 48 48 49 49 50 51 52 52 51 51 51 51 51 51 51 51 52 52 52 52 51 50
41 41 41 42 41 42 42 43 43 44 45 45 46 46 46 47 47 48 48 49 50 50 51 51 51 51 51 51 51 51 51 51 51 50 50 49 48 48
41 42 42 42 42 42 43 43 43 44 45 46 46 46 46 47 47 47 47 48 49 49 50 50 51 51 50 51 50 50 49 49 49 49 49 48 47 47
41 42 42 42 42 42 42 42 42 43 44 45 46 46 46 46 46 46 47 48 48 49 49 49 49 49 48 48 48 49 49 48 48 47 47 46 45 44
41 41 41 42 42 42 42 42 43 43 44 45 45 45 45 45 46 46 47 47 47 47 48 48 48 48 47 47 46 46 48 48 47 46 46 44 43 43
40 41 41 42 42 42 42 43 43 43 44 45 45 46 46 46 46 46 46 46 46 47 47 47 47 47 47 46 45 45 46 47 46 45 44 42 42 42
41 41 41 41 42 42 43 43 44 44 44 45 45 46 47 47 47 47 47 47 47 47 46 45 46 46 46 45 45 44 44 44 44 43 42 42 41 40
41 41 41 42 42 43 43 43 43 44 44 45 45 46 46 47 47 47 47 46 46 45 45 45 45 45 45 45 45 44 43 42 41 40 40 40 39 38
Wind_Direction
256 256 257 257 259 261 263 265 266 267 269 271 271 272 274 276 277 278 280 281 281 281 281 281 282 282 283 284 285 286 286 287 286 287 287 288 289 289
257 257 257 258 260 262 265 266 267 268 270 271 272 273 274 276 277 278 280 280 281 282 281 282 282 283 284 284 285 286 287 287 287 288 288 289 289 289
257 257 258 259 261 264 266 268 268 269 269 270 271 273 275 275 276 277 278 281 281 281 281 282 282 283 284 285 285 286 287 288 289 289 289 289 289 289
257 258 259 260 261 264 266 268 268 269 269 270 272 273 274 275 276 277 278 279 281 280 280 281 283 284 286 285 286 286 287 288 289 290 289 290 291 291
257 258 260 260 262 263 265 267 268 268 269 270 272 275 275 275 276 277 278 280 280 280 281 282 284 284 286 286 287 288 289 289 290 291 290 291 291 292
257 258 260 262 263 265 266 268 269 269 270 271 272 274 275 275 276 277 278 280 281 281 281 283 284 285 286 286 288 289 289 290 291 291 291 291 291 291
258 258 260 261 263 264 265 267 268 269 270 271 272 274 274 275 276 278 279 280 281 282 282 283 284 285 286 287 288 289 290 291 291 292 292 292 292 292
258 259 260 261 263 264 265 267 268 270 271 271 273 274 275 275 276 277 279 280 281 282 283 285 285 286 286 287 288 289 290 291 292 292 291 292 292 292
259 259 260 262 263 264 265 266 268 269 271 272 272 274 275 275 276 278 280 281 282 283 284 284 284 286 287 288 289 290 291 291 292 292 291 292 293 293
259 260 261 263 264 264 265 267 268 269 270 271 272 273 274 275 278 279 280 281 282 283 284 284 284 286 287 288 289 290 291 291 291 291 291 292 293 293
261 261 262 263 264 265 266 266 267 268 269 271 272 273 275 276 279 280 281 281 282 283 284 284 284 285 287 288 289 290 290 291 292 291 292 292 293 294
261 262 262 263 264 265 265 266 267 269 269 271 272 274 275 277 279 280 281 281 282 282 283 284 285 286 287 288 289 289 290 291 292 292 293 293 294 294
261 261 262 263 264 265 266 267 268 270 271 272 273 275 276 277 279 281 282 282 282 283 284 285 285 287 288 288 287 287 289 291 292 293 293 294 294 295
261 262 262 263 264 265 267 268 269 270 271 272 273 274 275 277 279 280 281 282 283 283 284 285 286 286 287 288 287 287 289 291 292 292 293 294 294 295
262 263 264 264 265 267 268 269 270 270 271 272 274 274 276 277 279 280 281 282 283 284 285 285 286 287 288 289 288 288 289 290 292 292 293 294 294 295
262 264 265 265 266 267 268 269 270 271 272 273 274 276 277 279 280 280 280 281 282 284 285 286 287 288 288 289 289 289 290 291 292 292 293 294 295 295
262 263 264 265 266 268 269 270 272 273 273 274 275 277 278 279 280 280 280 281 283 284 285 286 287 288 288 289 289 290 290 291 292 292 293 293 294 295
261 262 264 265 267 268 270 272 274 275 275 275 276 277 278 279 280 281 282 283 284 285 285 286 286 287 287 288 289 290 290 291 291 292 293 293 294 295
262 263 265 266 267 269 270 272 274 275 276 276 277 277 278 279 281 281 282 283 284 286 286 287 287 287 287 288 288 289 290 291 292 292 293 293 294 294
263 264 265 266 267 269 271 272 274 275 276 277 278 279 279 280 281 282 283 284 285 286 286 287 287 287 288 289 289 289 291 292 292 292 292 292 293 294
263 264 265 266 267 269 271 273 275 276 277 278 278 279 280 281 282 283 284 286 286 286 286 286 286 287 289 290 290 291 291 292 292 292 291 291 292 293
263 265 265 266 267 269 271 273 275 276 277 278 279 280 280 281 283 284 285 285 285 286 286 286 286 287 289 290 291 292 292 292 292 292 292 292 293 294
264 265 266 267 269 270 272 273 275 277 278 279 280 281 282 282 283 284 284 284 284 284 285 285 286 288 289 291 292 292 292 292 291 292 293 294 295 295
Height
5750 5752 5753 5755 5756 5757 5758 5758 5759 5759 5760 5759 5759 5758 5757 5757 5755 5754 5752 5751 5749 5748 5746 5745 5743 5741 5739 5737 5735 5732 5730 5728 5725 5722 5719 5716 5713 5710
5741 5742 5744 5745 5746 5747 5748 5748 5748 5748 5749 5749 5748 5748 5747 5746 5744 5743 5742 5740 5739 5737 5735 5734 5732 5730 5728 5725 5723 5720 5718 5715 5712 5709 5706 5703 5699 5696
5731 5733 5734 5735 5736 5737 5737 5737 5737 5737 5737 5738 5738 5737 5736 5735 5734 5732 5731 5730 5728 5726 5724 5723 5720 5719 5716 5714 5711 5708 5705 5702 5699 5696 5692 5689 5685 5682
5721 5723 5724 5725 5726 5726 5727 5727 5727 5727 5727 5727 5727 5726 5725 5724 5723 5721 5720 5718 5717 5715 5713 5711 5709 5707 5704 5702 5699 5696 5693 5689 5686 5683 5680 5676 5672 5668
5711 5712 5713 5714 5715 5716 5716 5716 5716 5716 5716 5716 5716 5715 5714 5713 5712 5711 5709 5707 5705 5704 5702 5699 5697 5694 5692 5689 5686 5683 5680 5677 5674 5670 5666 5662 5658 5653
5700 5702 5703 5704 5704 5705 5705 5705 5705 5705 5705 5706 5705 5704 5703 5702 5701 5700 5699 5696 5695 5693 5690 5687 5685 5682 5679 5677 5674 5670 5667 5663 5660 5656 5652 5648 5643 5639
5689 5691 5692 5693 5693 5694 5694 5694 5694 5694 5694 5694 5694 5694 5692 5691 5690 5689 5687 5685 5683 5681 5679 5676 5673 5670 5667 5664 5660 5657 5654 5650 5646 5642 5638 5634 5629 5625
5678 5679 5680 5681 5682 5682 5682 5683 5683 5683 5683 5683 5682 5682 5681 5680 5678 5677 5675 5674 5673 5671 5668 5665 5661 5658 5654 5651 5648 5644 5641 5637 5633 5629 5624 5620 5616 5612
5666 5667 5668 5669 5670 5670 5671 5671 5671 5671 5671 5671 5671 5670 5669 5668 5667 5665 5663 5661 5659 5657 5655 5653 5649 5646 5642 5638 5635 5631 5627 5624 5620 5616 5611 5607 5603 5598
5654 5655 5656 5657 5657 5658 5658 5659 5659 5659 5659 5659 5659 5658 5656 5655 5654 5652 5651 5649 5647 5644 5641 5640 5637 5634 5630 5625 5622 5618 5614 5610 5606 5602 5598 5594 5589 5585
5642 5643 5644 5645 5646 5646 5646 5647 5647 5647 5646 5646 5646 5645 5644 5642 5641 5639 5638 5636 5634 5631 5628 5627 5625 5622 5618 5614 5608 5604 5600 5597 5593 5588 5584 5580 5575 5571
5631 5631 5632 5633 5633 5633 5633 5633 5634 5634 5634 5633 5633 5632 5630 5629 5628 5626 5624 5622 5620 5619 5616 5614 5611 5608 5607 5603 5596 5591 5587 5583 5579 5575 5570 5566 5561 5557
5619 5619 5620 5620 5621 5621 5621 5621 5621 5621 5620 5620 5619 5618 5617 5616 5614 5612 5610 5609 5607 5605 5603 5600 5597 5594 5591 5589 5585 5579 5574 5570 5566 5562 5557 5552 5547 5542
5607 5608 5608 5609 5609 5609 5609 5609 5608 5608 5607 5607 5606 5605 5604 5603 5601 5599 5597 5595 5593 5591 5588 5586 5583 5580 5577 5574 5571 5567 5562 5557 5553 5548 5544 5539 5534 5529
5595 5596 5596 5597 5597 5597 5597 5597 5596 5596 5595 5595 5594 5593 5591 5590 5588 5587 5584 5582 5579 5577 5574 5571 5569 5566 5562 5559 5556 5553 5549 5545 5539 5535 5530 5525 5520 5515
5584 5584 5585 5585 5586 5586 5585 5585 5584 5584 5583 5582 5581 5580 5579 5577 5576 5574 5572 5569 5567 5564 5560 5557 5554 5551 5548 5544 5541 5538 5534 5530 5526 5521 5517 5512 5507 5502
5572 5573 5574 5574 5574 5574 5574 5573 5572 5572 5571 5570 5569 5567 5566 5564 5562 5560 5558 5556 5553 5551 5548 5544 5540 5537 5533 5530 5527 5523 5520 5516 5511 5507 5503 5499 5494 5489
5561 5562 5562 5562 5562 5562 5562 5561 5560 5559 5558 5557 5556 5555 5553 5551 5549 5547 5545 5542 5540 5537 5534 5531 5528 5524 5521 5517 5513 5509 5506 5502 5498 5494 5489 5486 5483 5477
5549 5550 5550 5550 5550 5550 5550 5549 5548 5547 5546 5544 5543 5542 5540 5538 5536 5534 5532 5529 5526 5523 5520 5516 5513 5510 5507 5505 5501 5495 5492 5489 5485 5481 5477 5473 5469 5465
5537 5538 5538 5538 5538 5538 5537 5537 5536 5535 5533 5532 5530 5529 5527 5525 5523 5521 5518 5515 5513 5510 5506 5503 5499 5496 5493 5491 5488 5484 5478 5475 5471 5468 5464 5460 5457 5453
5525 5525 5526 5526 5526 5526 5525 5524 5523 5522 5521 5519 5517 5516 5514 5512 5510 5507 5505 5502 5499 5496 5493 5490 5486 5483 5479 5477 5475 5472 5466 5461 5457 5454 5451 5449 5446 5442
5513 5513 5513 5513 5514 5513 5512 5512 5511 5509 5508 5506 5504 5502 5500 5498 5496 5494 5491 5488 5486 5483 5480 5477 5473 5470 5467 5464 5461 5458 5455 5450 5445 5441 5438 5436 5433 5431
5501 5501 5501 5501 5501 5500 5499 5499 5497 5496 5494 5493 5491 5489 5487 5484 5482 5480 5477 5475 5472 5469 5467 5464 5461 5457 5454 5451 5448 5445 5442 5438 5435 5432 5428 5424 5421 5419